Regional Weather Roundup
Issued by NWS Nashville, TN

Home | Current Version | Previous Version | Text Only | Print | Product List | Glossary On
Versions: 1 2 3 4 5 6 7 8 9 10 11 12 13 14 15 16 17 18 19 20 21 22 23 24 25 26 27 28 29 30 31 32 33 34 35 36 37 38 39 40 41 42 43 44 45 46 47 48 49 50
000
ASUS44 KOHX 041815
RWROHX
MIDDLE TENNESSEE HOURLY WEATHER ROUNDUP
NATIONAL WEATHER SERVICE NASHVILLE TN
100 PM CDT MON MAY 04 2015

NOTE: "FAIR" INDICATES FEW OR NO CLOUDS BELOW 12,000 FEET WITH
NO SIGNIFICANT WEATHER AND/OR OBSTRUCTIONS TO VISIBILITY.

* THESE REPORTS ARE NOT UNDER NWS QUALITY CONTROL AND MAY NOT
  REPORT WEATHER SUCH AS PRECIPITATION AND FOG.


TNZ005>011-023>034-057-059-062>066-078-080-041900
...NORTHERN MIDDLE TENNESSEE...

CITY           SKY/WX    TMP DP  RH WIND       PRES   REMARKS
CLARKSVILLE    MOSUNNY   80  56  43 W10       30.22F
CROSSVILLE     MOSUNNY   75  45  34 VRB3      30.31F
NASHVILLE      PTSUNNY   80  52  37 VRB6      30.24F
PORTLAND       MOSUNNY   79  57  47 SW9       30.23
ROCKWOOD       SUNNY     77  51  39 SE9       30.30F
SMYRNA         MOSUNNY   81  54  39 W7        30.25F
SPARTA         MOSUNNY   81  54  39 SW9       30.27F
$$
TNZ056-058-060-061-075>077-079-093>097-041900
...SOUTHERN MIDDLE TENNESSEE...

CITY           SKY/WX    TMP DP  RH WIND       PRES   REMARKS
COLUMBIA       MOSUNNY   82  55  39 S8        30.24F
LEWISBURG      MOSUNNY   82  52  35 VRB5      30.26F
MCMINNVILLE    SUNNY     81  54  39 W8        30.28F
SHELBYVILLE    PTSUNNY   81  57  44 SW7       30.28F
TULLAHOMA      MOSUNNY   77  50  38 CALM      30.30F
WINCHESTER     PTSUNNY   77  52  41 VRB3      30.29F
$$


...KEY TO REMARKS...
VSB - VISIBILITY IN MILES
WCI - WIND CHILL INDEX
HX  - HEAT INDEX




USA.gov is the U.S. government's official web portal to all federal, state and local government web resources and services.